Regional Weather Roundup
Issued by NWS

Home | Current Version | Previous Version | Text Only | Print | Product List | Glossary Off
Versions: 1 2 3 4 5 6 7 8 9 10 11 12 13 14 15 16 17 18 19 20 21 22 23 24 25 26 27 28 29 30 31 32 33 34 35 36 37 38 39 40 41 42 43 44 45 46 47 48 49 50

000
ASUS43 KOAX 040910
RWRNE

WEATHER ROUNDUP FOR NEBRASKA
NATIONAL WEATHER SERVICE OMAHA NE
400 AM CDT TUE AUG 04 2015

NOTES: SATELLITE DATA IS BEING USED TO AUGMENT CLOUD COVER ABOVE
       12000 FEET.
       "FAIR" INDICATES FEW OR NO CLOUDS BELOW 12,000 FEET WITH NO
       SIGNIFICANT WEATHER AND/OR OBSTRUCTIONS TO VISIBILITY.

  * THESE STATIONS DO NOT REPORT WEATHER SUCH AS RAIN...SNOW OR FOG.

NEZ001>004-019>022-054>056-041000-
NEBRASKA PANHANDLE

CITY           SKY/WX    TMP DP  RH WIND       PRES   REMARKS
SCOTTSBLUFF    PTCLDY    62  55  77 E6        29.95F
ALLIANCE       PTCLDY    60  53  77 SW7       29.96F
CHADRON        CLEAR     61  58  90 W3        29.92S
KIMBALL        PTCLDY    60  50  70 S6        30.00F
SIDNEY         PTCLDY    56  49  77 SW6       30.00F
$$

NEZ057>060-069>072-079>082-041000-
SOUTHWEST NEBRASKA

CITY           SKY/WX    TMP DP  RH WIND       PRES   REMARKS
NORTH PLATTE   MOCLDY    65  64  97 SE5       29.93F
IMPERIAL       FOG       65  64  97 E3        29.95F VSB 1/4
LEXINGTON      CLOUDY    70  67  92 SE8       29.92F FOG
MCCOOK         FOG       70  69  97 E3        29.92F VSB 1/4
OGALLALA       FOG       68  68  99 CALM      29.95F VSB 1/2
$$

NEZ005>010-023>029-035>040-094-041000-
NORTH CENTRAL NEBRASKA

CITY           SKY/WX    TMP DP  RH WIND       PRES   REMARKS
AINSWORTH      CLOUDY    68  63  83 NE12      29.98R
BROKEN BOW     CLOUDY    68  64  87 E6        29.94S
O`NEILL        CLOUDY    63  60  92 E6        29.97F
ORD            CLOUDY    67  64  90 NE8       29.96R
THEDFORD       CLOUDY    66  64  92 SE6       29.95F
$$

NEZ041-046>049-061>064-073>077-083>087-041000-
SOUTH CENTRAL NEBRASKA

CITY           SKY/WX    TMP DP  RH WIND       PRES   REMARKS
GRAND ISLAND   PTCLDY    67  64  90 E7        29.94R
AURORA         PTCLDY    66  65  96 E7        29.94R
HASTINGS       CLOUDY    70  67  90 SE8       29.92S
HEBRON         PTCLDY    69  67  92 E6        29.90F
HOLDREGE       CLOUDY    67  65  94 SE5       29.92F FOG
KEARNEY *      CLOUDY    68  64  88 SE10      29.92F
YORK           CLOUDY    68  64  88 E7        29.95R
$$

NEZ011>018-030>034-042>045-041000-
NORTHEAST NEBRASKA

CITY           SKY/WX    TMP DP  RH WIND       PRES   REMARKS
NORFOLK        CLOUDY    69  63  81 S12G20    29.99R
ALBION         CLOUDY    68  62  83 N13G25    30.01R
BLAIR          MOCLDY    67  61  81 E3        29.95S
COLUMBUS *     CLOUDY    70  57  64 NE10G18   30.00R
FREMONT        CLOUDY    71  62  74 W3        29.97R THUNDER
TEKAMAH        CLOUDY    69  66  90 CALM      29.94S
WAYNE          CLOUDY    65  63  92 S3        29.97R
$$

NEZ050>053-065>068-078-088>093-041000-
SOUTHEAST NEBRASKA

CITY           SKY/WX    TMP DP  RH WIND       PRES   REMARKS
LINCOLN        MOCLDY    70  65  84 E9        29.94R
OMAHA EPPLEY   MOCLDY    70  61  73 SE3       29.94F
BEATRICE       PTCLDY    70  68  94 E7        29.93S
FALLS CITY     PTCLDY    70  68  93 E7        29.93S
NEBRASKA CITY  CLOUDY    66  65  97 E5        29.94S
PLATTSMOUTH    MOCLDY    67  63  89 E6        29.94F
$$

NEZ044-045-051>053-067-041000-
OMAHA AREA

CITY           SKY/WX    TMP DP  RH WIND       PRES   REMARKS
OMAHA EPPLEY   MOCLDY    70  61  73 SE3       29.94F
BLAIR          MOCLDY    67  61  81 E3        29.95S
FREMONT        CLOUDY    71  62  74 W3        29.97R THUNDER
MILLARD        MOCLDY    70  64  80 SE7       29.94S
OFFUTT AFB     PTCLDY    67  64  88 E5        29.94F
PLATTSMOUTH    MOCLDY    67  63  89 E6        29.94F
WAHOO          PTSUNNY   68  65  89 E5        29.94F
$$



USA.gov is the U.S. government's official web portal to all federal, state and local government web resources and services.